Regional Weather Roundup
Issued by NWS

Home | Current Version | Previous Version | Graphics & Text | Print | Product List | Glossary On
Versions: 1 2 3 4 5 6 7 8 9 10 11 12 13 14 15 16 17 18 19 20 21 22 23 24 25 26 27 28 29 30 31 32 33 34 35 36 37 38 39 40 41 42 43 44 45 46 47 48 49 50
000
ASUS43 KMKX 012111
RWRWI

WISCONSIN REGIONAL WEATHER ROUNDUP
NATIONAL WEATHER SERVICE MILWAUKEE/SULLIVAN WI
400 PM CDT FRI AUG 01 2014

NOTE: "FAIR" INDICATES FEW OR NO CLOUDS BELOW 12,000 FEET WITH NO
SIGNIFICANT WEATHER AND/OR OBSTRUCTIONS TO VISIBILITY.

WIZ001-002-006>008-014>016-023>028-012200-
NORTHWEST WISCONSIN

CITY           SKY/WX    TMP DP  RH WIND       PRES   REMARKS
SUPERIOR ARPT  SUNNY     65  56  72 NE6       30.06S
ASHLAND        PTSUNNY   77  61  57 VRB6      30.08S
HAYWARD        MOSUNNY   80  52  37 N3        30.07F HX  80
SIREN          PTSUNNY   81  53  37 W3        30.06F HX  80
RICE LAKE      SUNNY     80  56  43 N5        30.07F HX  80
LADYSMITH      MOSUNNY   80  55  42 NW7       30.08S HX  80
EAU CLAIRE     PTSUNNY   82  61  48 NW6       30.04S HX  83
MENOMONIE      PTCLDY    84  55  37 W8        30.05S HX  83
NEW RICHMOND   SUNNY     82  53  36 CALM      30.06F HX  81
OSCEOLA        SUNNY     81  57  43 CALM      30.08F HX  81
$$

WIZ003>005-009-010-017-018-012200-
NORTH CENTRAL WISCONSIN

CITY           SKY/WX    TMP DP  RH WIND       PRES   REMARKS
WOODRUFF       MOSUNNY   80  52  37 NW6       30.09S HX  80
RHINELANDER    MOSUNNY   76  52  43 N6        30.08F
EAGLE RIVER    MOSUNNY   75  48  37 N5        30.08S
LAND O LAKES   MOSUNNY   76  49  38 NW6       30.10S
PHILLIPS       MOSUNNY   76  53  44 N8        30.07F
TOMAHAWK       MOSUNNY   77  55  47 CALM      30.07S
MEDFORD        MOSUNNY   77  57  50 NW6       30.07S
MERRILL        PTSUNNY   76  62  61 SW6       30.06F
$$

WIZ029-030-035-036-043>047-012200-
CENTRAL WISCONSIN

CITY           SKY/WX    TMP DP  RH WIND       PRES   REMARKS
WAUSAU         CLOUDY    67  62  84 N5        30.04F
MOSINEE        MOSUNNY   66  57  72 VRB3      30.07R
MARSHFIELD     PTSUNNY   74  60  61 NE9       30.07R
STEVENS POINT  CLOUDY    69  58  68 CALM      30.08R THUNDER
WAUPACA        LGT RAIN  76  64  65 NE6       30.04F
WAUTOMA        PTSUNNY   69  61  76 W3        30.06F
WISC RAPIDS    PTSUNNY   77  63  61 NW6       30.07R
CAMP DOUGLAS   PTSUNNY   81  61  50 W12G20    30.05F HX  81
$$

WIZ011>013-019>022-031-037>040-048>050-012200-
NORTHEAST WISCONSIN

CITY           SKY/WX    TMP DP  RH WIND       PRES   REMARKS
ANTIGO         PTSUNNY   76  55  47 CALM      30.08R
STURGEON BAY   MOSUNNY   75  63  64 S9        30.06R
GREEN BAY      PTSUNNY   75  65  70 NW7       30.04R
MANITOWOC      SUNNY     77  62  59 S12       30.04S
APPLETON       PTSUNNY   70  57  64 SW9       30.06S
CLINTONVILLE   CLOUDY    68  59  73 CALM      30.05F
OSHKOSH        CLOUDY    74  63  68 W3        30.05F
$$

WIZ032>034-041-042-053>061-012200-
SOUTHWEST WISCONSIN

CITY           SKY/WX    TMP DP  RH WIND       PRES   REMARKS
LA CROSSE      SUNNY     84  58  40 W10       30.04F HX  83
SPARTA         MOSUNNY   82  55  39 W6        30.06S HX  82
VIROQUA        FAIR      80  60  49 W6        30.08S HX  81
BOSCOBEL       MOSUNNY   86  57  37 VRB5      30.06S HX  85
PRAIRIE DU CHI SUNNY     82  50  32 W5        30.05F HX  81
PLATTEVILLE    FAIR      81  54  39 CALM      30.07F HX  81
$$

WIZ056-057-062-063-064-067-068-012200-
SOUTH CENTRAL WISCONSIN

CITY           SKY/WX    TMP DP  RH WIND       PRES   REMARKS
BARABOO/DELLS  MOSUNNY   83  54  36 W8        30.05S HX  82
LONE ROCK      SUNNY     86  58  38 NW8       30.05S HX  85
WATERTOWN      MOSUNNY   82  60  47 CALM      30.04S HX  82
MADISON        MOSUNNY   85  59  41 SW5       30.05S HX  84
MIDDLETON      FAIR      84  50  30 W6        30.06R HX  82
MONROE         SUNNY     82  54  36 CALM      30.06F HX  81
JANESVILLE     MOSUNNY   84  48  28 NW6       30.04F HX  82
$$

WIZ051-052-058>065-066-070>072-012200-
SOUTHEAST WISCONSIN

CITY           SKY/WX    TMP DP  RH WIND       PRES   REMARKS
MILWAUKEE      LGT RAIN  74  63  68 E18G25    30.05R
WAUKESHA       MOSUNNY   81  55  41 NW5       30.06S HX  80
MILWAUKEE/TIMM MOSUNNY   84  52  32 W5        30.04F HX  82
RACINE         SUNNY     80  60  50 S14       30.07S HX  81
BURLINGTON     MOSUNNY   81  54  40 CALM      30.05F HX  80
KENOSHA        PTSUNNY   80  60  50 E12       30.06S HX  81
FOND DU LAC    CLOUDY    73  62  68 SE3       30.05S
SHEBOYGAN      CLOUDY    76  64  66 E5        30.04S
WEST BEND      CLOUDY    79  55  44 W6        30.04F
JUNEAU         PTSUNNY   74  55  51 NW7       30.07S
$$

LSZ147-162-012200-
LAKE SUPERIOR

STATION/POSITION TIME  TEMP    WIND        PRES    WAVE
                       AIR SEA DIR/SP/G            HT/PER
                 (UTC) (F)     (DEG/KT/KT) (MB)    (FT/S)
W MID LAKE BUOY  2050   51 47  260/  2/  2 1019.0S   0
PORT WING        2040   67      20/  5/  6 1018.3F
SAXON HARBOR     2000           30/  5/  6 1018.6F
$$

LMZ867-665-643>646-012200-
LAKE MICHIGAN

STATION/POSITION TIME  TEMP    WIND        PRES    WAVE
                       AIR SEA DIR/SP/G            HT/PER
                 (UTC) (F)     (DEG/KT/KT) (MB)    (FT/S)
N MID LAKE BUOY  2050   62 60   60/  2/  2 1017.6R   0
NORTHPORT PIER   2000   63     120/  6/  8 1017.6S
SISTER BAY       2041   77        CALM       N/A
ALGOMA LAKESHORE 1951          100/  7/  7   N/A
KEWAUNEE LAKESHO 2000   62     180/  8/  9 1016.7F
SHEBOYGAN LAKESH 2100   69     170/ 12/ 12 1017.2R
PORT WASHINGTON  2000   74     180/  7/  9 1017.6
ATWATER BUOY     2100   69     140/ 12     1018.3F
MILWAUKEE LAKESH 2000   69     140/ 12/ 14   N/A
S MID LAKE BUOY  2050   67 66  160/  8/  8 1018.4R   0
KENOSHA   LAKESH 2100   70     160/ 12/ 13 1017.6R
$$

TC  - TEMPERATURE IN CELSIUS
VSB - VISIBILITY IN STATUTE MILES
WCI - WIND CHILL INDEX
HX  - HEAT INDEX



USA.gov is the U.S. government's official web portal to all federal, state and local government web resources and services.